Location: Harmony
(28.2000°N, 81.1500°W)
Time: 14:48:09
(UTC-05:00)

Daily predictions for brighter satellites

Satellite Brightness Start Highest point End
(mag) Time Altitude Azimuth Time Altitude Azimuth Time Altitude Azimuth
USA 229 DEB 4.4 18:10:52 10° S 18:16:51 33° ESE 18:22:51 10° NE
USA 229 4.4 18:11:01 10° S 18:16:56 33° ESE 18:22:56 10° NE
Cosmos 1125 Rocket 3.6 18:14:25 10° N 18:19:30 55° ENE 18:24:34 10° SSE
ATLAS 5 CENTAUR R/B 4.4 18:16:06 10° WSW 18:22:32 48° S 19:06:24 10° ESE
SPOT 3 Rocket 3.8 18:17:56 10° S 18:23:03 75° WSW 18:28:13 10° NNW
COSMO-SKYMED 1 2.5 18:18:52 10° NNE 18:23:12 80° E 18:27:32 10° S
MSX 3.9 18:17:44 10° SSE 18:23:27 89° W 18:29:12 10° NNW
Meteor 1-11 4.3 18:20:32 10° S 18:26:11 84° E 18:31:56 10° N
Cosmos 1666 Rocket 4.4 18:22:54 10° SSE 18:26:35 28° E 18:30:18 10° NNE
COSMOS 2441 4.4 18:22:40 10° SSE 18:27:32 88° ENE 18:32:24 10° NNW
Cosmos 1184 Rocket 4.2 18:27:32 10° SE 18:30:04 20° E 18:32:36 10° NE
Lacrosse 5 rocket 2.7 18:29:04 10° N 18:31:54 19° NE 18:34:50 10° E
Cosmos 1538 Rocket 4.2 18:27:24 10° S 18:32:30 53° ESE 18:37:40 10° NNE
Cosmos 2151 3.8 18:28:52 10° SSW 18:32:59 53° W 18:37:06 10° N
Tiangong 1 2.4 18:32:36 10° SSW 18:35:04 24° SE 18:37:03 13° E
OAO 3 Rocket 4.2 18:33:14 10° WNW 18:37:57 47° SSW 18:42:34 10° SE
CZ-4 R/B 4.2 18:39:20 10° SSW 18:42:20 22° W 18:45:21 10° NW
ALOS 3.7 18:40:44 10° ESE 18:43:32 16° ENE 18:46:20 10° NNE
Cosmos 2279 Rocket 3.9 18:37:54 10° N 18:44:06 71° E 18:50:19 10° SSE
NOAA 12 4.4 18:41:19 10° SE 18:46:12 42° ENE 18:51:08 10° N
Cosmos 2333 Rocket 4.5 18:42:45 10° WSW 18:47:04 22° WNW 18:51:25 10° NNW
Centaur AC-119 2.1 18:47:42 10° WSW 18:49:40 48° SSE 18:52:10 17° E
Cosmos 1626 2.0 18:47:02 10° S 18:50:43 69° E 18:54:26 10° NNE
Cosmos 1603 4.4 18:45:56 10° SSE 18:50:54 33° ESE 18:55:01 14° NE
SJ-6B 3.4 18:51:36 10° SE 18:55:19 36° ENE 18:59:06 10° N
Nadezhda 4 Rocket 4.0 18:50:10 10° S 18:56:17 64° E 19:02:30 10° NNE
Milstar 3 3.1 18:50:37 10° W 18:57:18 65° SSW 19:04:42 10° ESE
Cosmos 1703 3.7 18:55:12 10° SSW 18:59:03 62° W 19:02:54 10° N
Cosmos 1470 Rocket 4.5 18:55:51 10° SSE 18:59:28 26° E 19:00:37 23° ENE
FAST Rocket 4.4 19:00:45 10° SSW 19:03:42 63° W 19:06:16 10° N
Cosmos 2242 Rocket 4.5 19:00:22 10° NNE 19:04:06 26° E 19:07:51 10° SE
Cosmos 1805 Rocket 4.3 19:00:38 10° SSW 19:04:59 56° W 19:09:23 10° N
Cosmos 2278 Rocket 2.6 19:00:34 10° NNW 19:06:11 66° WSW 19:11:47 10° S
Cosmos 1455 2.4 19:06:01 10° N 19:09:41 45° E 19:13:21 10° SSE
NOSS 3-1 (C) 4.2 19:05:23 10° SSE 19:09:59 26° ESE 19:11:02 25° E
EPKM 3.2 19:04:06 10° W 19:10:22 45° S 19:11:23 29° SE
Cosmos 773 Rocket 3.9 19:08:39 10° SSW 19:13:47 89° WNW 19:19:00 10° NNE
FREGAT/IRIS 2.4 19:12:32 10° SSE 19:15:33 71° ENE 19:18:36 10° N
Cosmos 1092 Rocket 3.9 19:10:23 10° S 19:16:38 67° E 19:22:55 10° NNE
Helios 1B rocket 3.4 19:20:03 28° SE 19:20:03 28° SE 19:22:48 10° SSE
Atlas Centaur 2 4.2 19:19:17 10° WSW 19:22:13 15° SW 19:24:50 10° S
Sich 1 3.7 19:18:02 10° SSW 19:22:22 56° W 19:26:45 10° N
Cosmos 2112 Rocket 4.3 19:18:33 10° S 19:23:26 43° E 19:24:29 38° ENE
USA 215 3.8 19:21:36 29° E 19:23:52 38° NE 19:29:47 10° NNW
Cosmos 1633 Rocket 3.8 19:25:34 10° SSW 19:29:51 52° W 19:34:10 10° N
SL-16 R/B 3.9 19:25:24 10° SW 19:30:19 31° WNW 19:35:17 10° N
Delta 2 Rocket 3.7 19:34:49 10° SW 19:37:20 42° SSW 19:37:20 42° SSW
Cosmos 2195 Rocket 4.3 19:35:50 10° S 19:41:53 69° E 19:46:12 20° NNE
Cosmos 2297 4.1 19:43:15 10° NNW 19:48:53 62° WSW 19:54:30 10° S
OTV 4 3.0 19:49:38 10° WNW 19:50:55 21° W 19:50:55 21° W
Spot 2 Rocket 3.5 19:54:26 10° S 19:59:29 79° WSW 20:04:32 10° NNW
Resurs 01 Rocket 3.0 19:56:04 10° S 20:03:50 17° NNW 20:04:56 10° NNW
CZ-3A R/B 3.3 19:57:14 10° NNW 20:13:33 - SE 20:01:30 56° NE
FENGYUN 3A 3.9 19:59:31 10° S 20:04:48 66° WSW 20:10:09 10° NNW
Cosmos 1655 Rocket 3.9 19:59:11 10° S 20:05:34 81° E 20:06:21 69° NNE
Cosmos 1943 3.5 20:04:13 10° SSW 20:08:34 55° S 20:08:34 55° S
Lacrosse 5 rocket 3.0 20:07:33 10° WNW 20:10:50 30° WSW 20:10:50 30° WSW
ALOS 3.7 20:16:21 10° SSW 20:20:37 36° W 20:24:54 10° NNW
NOSS 3-1 (A) 4.0 20:15:44 10° SSW 20:19:22 43° SSW 20:19:22 43° SSW
Intelsat 5-1 Rocket 4.5 20:36:48 10° WSW 20:38:07 21° WSW 20:38:07 21° WSW
